Other Public Products
Issued by NWS Grand Forks, ND

Home | Current Version | Previous Version | Graphics & Text | Print | Product List | Glossary On
Versions: 1 2 3 4 5 6 7 8 9 10 11 12 13 14 15 16 17 18 19 20 21 22 23 24 25 26 27 28 29 30 31 32 33 34 35 36 37 38 39 40 41 42 43 44 45 46 47 48 49 50
600
FPUS83 KFGF 211610
OPUFGF
PRAIRIE TO PINES WEATHER ROUNDUP
NATIONAL WEATHER SERVICE EASTERN NORTH DAKOTA/GRAND FORKS ND
1100 AM CDT FRI JUL 21 2017

 **SATELLITE DATA USED TO AUGMENT SKY COVER AT AUTOMATED STATIONS**
 *****  WEATHER ACROSS EASTERN NORTH DAKOTA  *****

CITY           SKY/WX    TMP DP  RH WIND       PRES   REMARKS
GRAND FORKS    PTSUNNY   82  73  74 S8        29.78F
GRAND FORKS AF FAIR      80  72  75 S7        29.79F
GRAND CITY NWS NOT AVBL
BUXTON         NOT AVBL
DEVILS LAKE    FAIR      79  69  71 S13       29.80F
FARGO          FAIR      84  74  71 SW13      29.78F HX  91
WAHPETON ARPT  FAIR      79  70  73 SE5       29.80S
$$

 *****  WEATHER ACROSS CENTRAL AND WESTERN NORTH DAKOTA  *****

CITY           SKY/WX    TMP DP  RH WIND       PRES   REMARKS
JAMESTOWN      PTSUNNY   80  68  66 N3        29.82F
BISMARCK       PTSUNNY   80  64  58 SE3       29.85R
MINOT          FAIR      71  62  73 N6        29.79F
MINOT AFB      LGT RAIN  68  60  76 NE8G24    29.73F
GARRISON         N/A     80  64  58 N8        29.81S
WILLISTON      FAIR      77  60  55 S9        29.79F
DICKINSON      FAIR      79  65  62 CALM      29.83F
HETTINGER      FAIR      79  65  62 SW10      29.87R
$$

 *****  OTHER OBSERVATIONS NORTHEAST NORTH DAKOTA  *****

CITY           SKY/WX    TMP DP  RH WIND       PRES   REMARKS
WALHALLA       NOT AVBL
LANGDON        FAIR      79  73  83 SE12      29.81S
CAVALIER       FAIR      75  68  78 SE7       29.78F
GRAFTON        FAIR      79  70  73 SE12      29.79F
CANDO          NOT AVBL
FORT TOTTEN      N/A     81  66  61 S7        29.95
ROLLA            N/A     68  68 100 E9        29.82F
RUGBY          NOT AVBL
 ***** THE ABOVE OBSERVATIONS ARE NON NWS ARE NOT QUALITY
        CONTROLLED AND MAY MIS-REPORT RAIN FOR SNOW...
$$

 *****  OTHER OBSERVATIONS SOUTHEAST NORTH DAKOTA *****

CITY           SKY/WX    TMP DP  RH WIND       PRES   REMARKS
COOPERSTOWN    FAIR      81  70  69 SW10      29.82S
VALLEY CITY    PTSUNNY   79  72  78 W5        29.83F
OAKES          NOT AVBL
GWINNER        SUNNY     81  73  78 CALM      29.80S
SHEYENNE NWR     N/A     83  75  77 S2        29.95S HX  91
BUFFALO        NOT AVBL
WYNDMERE       NOT AVBL
 ***** THE ABOVE OBSERVATIONS ARE NON NWS ARE NOT QUALITY
       CONTROLLED AND MAY MIS-REPORT RAIN FOR SNOW...
$$

  *****  WEATHER ACROSS NORTHERN MINNESOTA  *****

CITY           SKY/WX    TMP DP  RH WIND       PRES   REMARKS
FLAG ISLAND    FAIR      70  61  73 E5        29.90F
WARROAD        FAIR      72  63  73 E13       29.89F
ROSEAU         FAIR      73  63  68 E13       29.86F
HALLOCK        FAIR      81  68  65 SE16      29.79F
THF RVR FALLS  CLOUDY    78  70  76 SE9       29.83F
HALSTAD        NOT AVBL
FOSSTON        FAIR      79  66  65 S12       29.85S
BAUDETTE       FAIR      74  59  59 SE13      29.90F
WASKISH        PTSUNNY   79  64  61 E7        29.88F
CROOKSTON      FAIR      81  72  74 SW9       29.80F
$$
  *****  WEATHER ACROSS CENTRAL AND WEST MINNESOTA  *****

CITY           SKY/WX    TMP DP  RH WIND       PRES   REMARKS
BEMIDJI        FAIR      79  64  60 SE12G20   29.86F
PARK RAPIDS    FAIR      80  63  55 SE13      29.86F
WADENA         FAIR      77  66  69 SE16      29.83F
DETROIT LAKES  FAIR      79  68  69 S8        29.84S
MOORHEAD       FAIR      82  73  74 S9        29.80S
FERGUS FALLS   FAIR      81  72  74 S9        29.81R
ELBOW LAKE     CLOUDY    77  72  85 SE8       29.84R
MORRIS MN      FAIR      79  72  78 E10       29.81R
STAPLES        FAIR      79  61  53 SE8       29.87R
WHEATON        PTSUNNY   75  70  83 SE3       29.82S
$$
  *****  WEATHER ELSEWHERE ACROSS MINNESOTA  *****

CITY           SKY/WX    TMP DP  RH WIND       PRES   REMARKS
DULUTH         FAIR      71  61  70 E7        29.95F
INTRNTL FALLS  FAIR      70  60  70 E7        29.94S
ELY            FAIR      66  55  68 NE3       29.97F
CLOQUET        FAIR      72  61  68 E6        29.94F
BRAINERD       FAIR      78  65  63 SE10      29.90R
HIBBING        FAIR      75  64  68 SE10      29.93F
ALEXANDRIA     FAIR      75  69  81 SE14      29.86S
SAINT CLOUD    FAIR      76  69  79 SE13G24   29.86F
MINNEAPOLIS    PTSUNNY   74  67  78 SE9       29.91F
$$

  *****  WEATHER ACROSS SOUTH DAKOTA  *****

CITY           SKY/WX    TMP DP  RH WIND       PRES   REMARKS
SIOUX FALLS    CLOUDY    74  71  91 SE9       29.80F
BROOKINGS      FAIR      76  70  82 SE13      29.81R
WATERTOWN      PTSUNNY   81  71  71 S8        29.80R
HURON          FAIR      80  71  74 VRB3      29.80R
SISSETON         N/A     79  73  82 S7        29.80R
ABERDEEN       FAIR      82  73  74 S12       29.80S
MITCHELL       FAIR      81  70  69 SE15      29.80S
PIERRE         NOT AVBL
MOBRIDGE       FAIR      83  72  69 CALM      29.80S
RAPID CITY     FAIR      79  66  64 SW6       29.90S
$$

  *****  SOME WEATHER IN NEARBY STATES *****

CITY           SKY/WX    TMP DP  RH WIND       PRES   REMARKS
GLASGOW MT     FAIR      77  48  35 W17       29.87S
GREAT FALLS MT FAIR      75  24  15 SW16      30.02F
CHEYENNE WY    FAIR      80  47  31 NW9       30.18R
SCOTTSBLUFF NE FAIR      82  59  45 W8        30.01R
OMAHA NE       FAIR      93  70  46 S15G22    29.80F HX  99
DES MOINES IA  FAIR      88  76  67 SE9       29.87F HX  99
DAVENPORT IA   FAIR      81  72  74 SE9       29.98F
CHICAGO IL     PTSUNNY   84  69  60 SE8       30.00R
EAU CLAIRE WI  FAIR      75  68  78 S10       29.95F
LA CROSSE WI   RAIN      73  70  90 SE8       29.97F FOG
$$

  *****  SOME NATIONAL WEATHER *****

CITY           SKY/WX    TMP DP  RH WIND       PRES   REMARKS
LA GUARDIA NY  FAIR      87  68  52 NW12      29.89F HX  90
RALEIGH NC     PTSUNNY   95  70  44 SW9       30.01F HX 101
ATLANTA GA     FAIR      89  72  56 SW6       30.08S HX  96
NEW ORLEANS LA PTSUNNY   90  77  65 VRB5      30.05F HX 103
OKLAHOMA CITY  FAIR      92  67  43 S13       29.99F HX  95
ALBUQUERQUE NM FAIR      78  55  44 W5        30.23F
SALT LAKE CITY FAIR      85  54  34 SE7       30.07S
LOS ANGELES CA FAIR      73  63  70 SE3       29.96S
BOISE ID       FAIR      70  48  45 VRB5      30.09S
SEATTLE WA     PTSUNNY   62  54  74 W5        30.16S
$$

*** WEATHER ACROSS MANITOBA...SASKATCHEWAN AND ONTARIO ***
                ***ONTARIO***

CITY           SKY/WX    TMP DP  RH WIND       PRES   REMARKS
GERALDTON      MOSUNNY   68  50  52 VRB6      29.96R
THUNDER BAY    PTSUNNY   72  57  60 W5        29.95R
SIOUX LOOKOUT  CLOUDY    72  57  60 CALM      29.95S
TORONTO        PTSUNNY   81  59  47 NW18      29.92F
BIG TROUT LK   CLOUDY    61  41  48 NW8G17    29.96S
PICKLE LAKE    MOSUNNY   63  43  48 VRB3      29.99R
DRYDEN         MOSUNNY   73  59  60 NE5       29.94F
KENORA         PTSUNNY   73  55  53 E9        29.94S
$$
                *** MANITOBA***

CITY           SKY/WX    TMP DP  RH WIND       PRES   REMARKS
BRANDON        PTSUNNY   70  63  78 E13G18    29.85R
DAUPHIN        SUNNY     70  63  78 SE10      29.87R
ISLAND LAKE    MOSUNNY   63  43  48 W5        29.99F
PILOT MOUND      N/A     72  64  78 E5          N/A
THE PAS        PTSUNNY   68  46  45 SE14      29.95S
THOMPSON       MOSUNNY   66  39  37 W3        29.98F
WINNIPEG       PTSUNNY   72  59  64 E12G18    29.83F
LYNN LAKE      SUNNY     64  39  39 S3        30.00S
CHURCHILL      MOSUNNY   54  46  76 N8        29.93R
GILLAM         MOSUNNY   66  45  45 W12       29.95S
$$
                ***SASKATCHEWAN***

CITY           SKY/WX    TMP DP  RH WIND       PRES   REMARKS
ESTEVAN        PTSUNNY   70  64  83 NE23      29.79F
KINDERSLEY     MOSUNNY   63  55  77 NW9G17    29.87R
LLOYDMINSTER   PTSUNNY   59  57  94 W10       29.83S SMOKE
PRINCE ALBERT  PTSUNNY   64  57  77 E14       29.86F
REGINA         PTSUNNY   73  59  60 S9        29.81F
YORKTON        SUNNY     72  59  64 E14       29.83S



USA.gov is the U.S. government's official web portal to all federal, state and local government web resources and services.